• In Uzbekistan
  • List of Countries
  • For 7 days
  • Water Temperature
  • Satellite Maps
  • Weather Map
  • Weather Widgets
  • user-avatar
    Login

    Hourly Weather Duabo

    Today, 18 October, Wednesday

    Time Temperature Precipitation Wind Pressure Humidity
    00:00 +24°C° 0.4 mm 1 mps 742 mmHg 98%
    01:00 +24°C° 0.4 mm 1 mps 742 mmHg 98%
    02:00 +24°C° 0.4 mm 1 mps 741 mmHg 98%
    03:00 +24°C° 0.2 mm 1 mps 741 mmHg 98%
    04:00 +24°C° 0.2 mm 1 mps 741 mmHg 98%
    05:00 +24°C° 0.2 mm 1 mps 742 mmHg 99%
    06:00 +25°C° 0.1 mm 1 mps 742 mmHg 95%
    07:00 +26°C° 0.1 mm 1 mps 742 mmHg 91%
    08:00 +27°C° 0.1 mm 1 mps 742 mmHg 87%
    09:00 +29°C° 0.1 mm 1 mps 742 mmHg 80%
    10:00 +31°C° 0.1 mm 1 mps 742 mmHg 72%
    11:00 +32°C° 0.1 mm 1 mps 741 mmHg 64%
    12:00 +32°C° 0.7 mm 1 mps 741 mmHg 69%
    13:00 +31°C° 0.7 mm 1 mps 740 mmHg 74%
    14:00 +30°C° 0.7 mm 1 mps 740 mmHg 79%
    15:00 +29°C° 0.9 mm 1 mps 740 mmHg 84%
    16:00 +28°C° 0.9 mm 1 mps 740 mmHg 89%
    17:00 +27°C° 0.9 mm 1 mps 740 mmHg 94%
    18:00 +26°C° 0.6 mm 1 mps 741 mmHg 95%
    19:00 +25°C° 0.6 mm 1 mps 742 mmHg 97%
    20:00 +25°C° 0.6 mm 1 mps 742 mmHg 98%
    21:00 +25°C° 0 mm 1 mps 742 mmHg 98%
    22:00 +25°C° 0 mm 1 mps 743 mmHg 98%
    23:00 +24°C° 0 mm 1 mps 743 mmHg 99%

    Tomorrow, 19 October, Thursday

    Time Temperature Precipitation Wind Pressure Humidity
    00:00 +24°C° 0 mm 1 mps 742 mmHg 99%
    01:00 +24°C° 0 mm 1 mps 742 mmHg 99%
    02:00 +24°C° 0 mm 1 mps 741 mmHg 99%
    03:00 +24°C° 0 mm 1 mps 741 mmHg 99%
    04:00 +24°C° 0 mm 1 mps 741 mmHg 99%
    05:00 +24°C° 0 mm 1 mps 741 mmHg 98%
    06:00 +25°C° 0 mm 1 mps 742 mmHg 95%
    07:00 +26°C° 0 mm 1 mps 742 mmHg 91%
    08:00 +27°C° 0 mm 1 mps 743 mmHg 87%
    09:00 +29°C° 0 mm 1 mps 743 mmHg 79%
    10:00 +31°C° 0 mm 1 mps 742 mmHg 70%
    11:00 +32°C° 0 mm 1 mps 742 mmHg 61%
    12:00 +32°C° 0.4 mm 1 mps 741 mmHg 64%
    13:00 +32°C° 0.4 mm 1 mps 741 mmHg 66%
    14:00 +32°C° 0.4 mm 1 mps 740 mmHg 69%
    15:00 +30°C° 0.5 mm 1 mps 740 mmHg 76%
    16:00 +29°C° 0.5 mm 1 mps 740 mmHg 83%
    17:00 +27°C° 0.5 mm 1 mps 740 mmHg 91%
    18:00 +27°C° 0.2 mm 1 mps 741 mmHg 93%
    19:00 +26°C° 0.2 mm 1 mps 741 mmHg 95%
    20:00 +25°C° 0.2 mm 1 mps 742 mmHg 97%
    21:00 +25°C° 0 mm 1 mps 742 mmHg 97%
    22:00 +25°C° 0 mm 1 mps 742 mmHg 98%
    23:00 +24°C° 0 mm 1 mps 742 mmHg 98%

    Day after tomorrow, 20 October, Friday

    Time Temperature Precipitation Wind Pressure Humidity
    00:00 +24°C° 0 mm 1 mps 741 mmHg 98%
    01:00 +24°C° 0 mm 1 mps 741 mmHg 99%
    02:00 +24°C° 0 mm 1 mps 740 mmHg 99%
    03:00 +24°C° 0 mm 1 mps 740 mmHg 99%
    04:00 +24°C° 0 mm 1 mps 740 mmHg 99%
    05:00 +23°C° 0 mm 1 mps 741 mmHg 99%
    06:00 +25°C° 0 mm 1 mps 741 mmHg 94%
    07:00 +26°C° 0 mm 1 mps 742 mmHg 89%
    08:00 +28°C° 0 mm 1 mps 742 mmHg 84%
    09:00 +29°C° 0 mm 1 mps 742 mmHg 76%
    10:00 +31°C° 0 mm 1 mps 742 mmHg 68%
    11:00 +33°C° 0 mm 1 mps 741 mmHg 59%
    12:00 +32°C° 0.5 mm 1 mps 741 mmHg 63%
    13:00 +32°C° 0.5 mm 1 mps 740 mmHg 66%
    14:00 +31°C° 0.5 mm 1 mps 739 mmHg 70%
    15:00 +30°C° 1 mm 1 mps 739 mmHg 77%
    16:00 +28°C° 1 mm 1 mps 740 mmHg 85%
    17:00 +27°C° 1 mm 1 mps 740 mmHg 92%
    18:00 +26°C° 0.4 mm 1 mps 740 mmHg 94%
    19:00 +26°C° 0.4 mm 1 mps 741 mmHg 95%
    20:00 +25°C° 0.4 mm 1 mps 742 mmHg 97%
    21:00 +25°C° 0 mm 1 mps 742 mmHg 97%
    22:00 +25°C° 0 mm 1 mps 742 mmHg 98%
    23:00 +24°C° 0 mm 1 mps 742 mmHg 99%

    21 October, Saturday

    Time Temperature Precipitation Wind Pressure Humidity
    00:00 +24°C° 0.3 mm 1 mps 741 mmHg 99%
    01:00 +24°C° 0.3 mm 1 mps 741 mmHg 99%
    02:00 +24°C° 0.3 mm 1 mps 740 mmHg 99%
    03:00 +24°C° 0 mm 1 mps 740 mmHg 99%
    04:00 +24°C° 0 mm 1 mps 740 mmHg 99%
    05:00 +24°C° 0 mm 1 mps 741 mmHg 99%
    06:00 +25°C° 0 mm 1 mps 741 mmHg 95%
    07:00 +26°C° 0 mm 1 mps 742 mmHg 92%
    08:00 +27°C° 0 mm 1 mps 742 mmHg 89%
    09:00 +28°C° 0 mm 1 mps 742 mmHg 81%
    10:00 +30°C° 0 mm 1 mps 742 mmHg 73%
    11:00 +32°C° 0 mm 1 mps 741 mmHg 66%
    12:00 +32°C° 0.1 mm 1 mps 741 mmHg 65%
    13:00 +30°C° 0.1 mm 0 mps 740 mmHg 63%
    14:00 +30°C° 0.1 mm 0 mps 739 mmHg 62%
    15:00 +29°C° 0.2 mm 0 mps 740 mmHg 69%
    16:00 +30°C° 0.2 mm 1 mps 740 mmHg 76%
    17:00 +28°C° 0.2 mm 1 mps 740 mmHg 83%
    18:00 +27°C° 0.5 mm 1 mps 741 mmHg 88%
    19:00 +26°C° 0.5 mm 1 mps 741 mmHg 92%
    20:00 +25°C° 0.5 mm 1 mps 742 mmHg 96%
    21:00 +25°C° 0.1 mm 1 mps 742 mmHg 97%
    22:00 +25°C° 0.1 mm 1 mps 742 mmHg 98%
    23:00 +25°C° 0.1 mm 1 mps 742 mmHg 98%

    22 October, Sunday

    Time Temperature Precipitation Wind Pressure Humidity
    00:00 +25°C° 0 mm 1 mps 741 mmHg 98%
    01:00 +24°C° 0 mm 1 mps 741 mmHg 99%
    02:00 +24°C° 0 mm 1 mps 740 mmHg 99%
    03:00 +24°C° 0 mm 1 mps 741 mmHg 99%
    04:00 +22°C° 0 mm 0 mps 741 mmHg 99%
    05:00 +22°C° 0 mm 0 mps 741 mmHg 99%
    06:00 +25°C° 0 mm 1 mps 742 mmHg 94%
    07:00 +26°C° 0 mm 1 mps 742 mmHg 90%
    08:00 +28°C° 0 mm 1 mps 742 mmHg 86%
    09:00 +29°C° 0.1 mm 1 mps 742 mmHg 80%
    10:00 +30°C° 0.1 mm 1 mps 742 mmHg 73%
    11:00 +32°C° 0.1 mm 1 mps 742 mmHg 67%
    12:00 +31°C° 0.7 mm 1 mps 741 mmHg 72%
    13:00 +30°C° 0.7 mm 1 mps 740 mmHg 77%
    14:00 +30°C° 0.7 mm 1 mps 740 mmHg 82%
    15:00 +29°C° 0.5 mm 1 mps 740 mmHg 85%
    16:00 +28°C° 0.5 mm 1 mps 740 mmHg 89%
    17:00 +27°C° 0.5 mm 1 mps 740 mmHg 93%
    18:00 +26°C° 0.1 mm 1 mps 741 mmHg 95%
    19:00 +26°C° 0.1 mm 1 mps 742 mmHg 96%
    20:00 +25°C° 0.1 mm 1 mps 742 mmHg 98%
    21:00 +25°C° 0 mm 1 mps 742 mmHg 98%
    22:00 +25°C° 0 mm 1 mps 742 mmHg 98%
    23:00 +24°C° 0 mm 1 mps 742 mmHg 99%

    23 October, Monday

    Time Temperature Precipitation Wind Pressure Humidity
    00:00 +24°C° 0 mm 1 mps 741 mmHg 99%
    01:00 +22°C° 0 mm 0 mps 741 mmHg 99%
    02:00 +22°C° 0 mm 0 mps 740 mmHg 99%
    03:00 +22°C° 0 mm 0 mps 741 mmHg 99%
    04:00 +22°C° 0 mm 0 mps 741 mmHg 99%
    05:00 +22°C° 0 mm 0 mps 741 mmHg 99%
    06:00 +25°C° 0 mm 1 mps 741 mmHg 94%
    07:00 +27°C° 0 mm 1 mps 742 mmHg 89%
    08:00 +28°C° 0 mm 1 mps 742 mmHg 84%
    09:00 +30°C° 0 mm 1 mps 741 mmHg 75%
    10:00 +32°C° 0 mm 1 mps 741 mmHg 66%
    11:00 +33°C° 0 mm 1 mps 741 mmHg 57%
    12:00 +33°C° 0.2 mm 1 mps 740 mmHg 58%
    13:00 +33°C° 0.2 mm 1 mps 739 mmHg 59%
    14:00 +33°C° 0.2 mm 1 mps 739 mmHg 61%
    15:00 +31°C° 0.7 mm 1 mps 739 mmHg 69%
    16:00 +30°C° 0.7 mm 1 mps 739 mmHg 78%
    17:00 +28°C° 0.7 mm 1 mps 739 mmHg 86%
    18:00 +27°C° 0.1 mm 1 mps 740 mmHg 89%
    19:00 +26°C° 0.1 mm 1 mps 741 mmHg 93%
    20:00 +26°C° 0.1 mm 1 mps 741 mmHg 96%
    21:00 +26°C° 0 mm 1 mps 741 mmHg 97%
    22:00 +25°C° 0 mm 1 mps 741 mmHg 97%
    23:00 +25°C° 0 mm 1 mps 741 mmHg 98%
    Show more